Regional Weather Roundup
Issued by NWS

Home | Current Version | Previous Version | Graphics & Text | Print | Product List | Glossary On
Versions: 1 2 3 4 5 6 7 8 9 10 11 12 13 14 15 16 17 18 19 20 21 22 23 24 25 26 27 28 29 30 31 32 33 34 35 36 37 38 39 40 41 42 43 44 45 46 47 48 49 50
000
ASUS43 KLOT 240910
RWRIL

ILLINOIS REGIONAL WEATHER ROUNDUP
NATIONAL WEATHER SERVICE CHICAGO/ROMEOVILLE IL
400 AM CDT THU JUL 24 2014

NOTE: "FAIR" INDICATES FEW OR NO CLOUDS BELOW 12,000 FEET WITH NO
SIGNIFICANT WEATHER AND/OR OBSTRUCTIONS TO VISIBILITY.

* THESE STATIONS ARE NOT UNDER NWS QUALITY CONTROL. THEY ALSO MAY NOT
  REPORT WEATHER SUCH AS PRECIPITATION OR FOG.

ILZ001-002-007-009-015-016-024-241000-
NORTHWEST ILLINOIS

CITY           SKY/WX    TMP DP  RH WIND       PRES   REMARKS
MOLINE         CLEAR     57  53  86 CALM      30.16R
STERLING*      CLEAR     55  50  82 CALM      30.17R
SAVANNA*       CLOUDY    59  52  76 CALM      30.17S
$$

ILZ003-004-008-010-011-017-018-241000-
NORTH CENTRAL ILLINOIS

CITY           SKY/WX    TMP DP  RH WIND       PRES   REMARKS
ROCKFORD       CLEAR     57  48  72 NE5       30.19R
FREEPORT*      CLEAR     51  49  93 CALM      30.19S
ROCHELLE*      CLEAR     53  49  86 CALM      30.17R
DE KALB*       CLEAR     52  49  89 N5        30.16S
PERU*          CLEAR     55  48  76 NE7       30.15S
$$

ILZ005-006-012>014-019>023-241000-
NORTHEAST ILLINOIS

CITY           SKY/WX    TMP DP  RH WIND       PRES   REMARKS
CHICAGO-OHARE  CLEAR     58  50  75 N7        30.13S
CHICAGO-MIDWAY CLEAR     61  55  81 NW7       30.12S
AURORA         CLEAR     53  49  86 N7        30.15R
LANSING*       CLEAR     61  55  78 NE3       30.11S
JOLIET*        CLEAR     56  52  84 N7        30.14S
WAUKEGAN       CLEAR     54  51  90 NW5       30.14F
DUPAGE AIRPORT CLEAR     53  50  89 N6        30.14S
KANKAKEE*      CLEAR     57  55  92 N3        30.11F
WHEELING       CLEAR     57  52  83 N7        30.15S
MORRIS*        CLEAR     54  52  92 CALM      30.13R
ROMEOVILLE*    CLEAR     56  53  91 N8        30.13S
NORTHERLY ISL    N/A     61  56  83 MISG        N/A
$$

LMZ740>746-241000-
SOUTHERN LAKE MICHIGAN

STATION/POSITION SKY/WX   TEMP    WIND        PRES    VSBY  WAVE
                          AIR SEA DIR/SP/G                  HT/PER
                          (F)     (DEG/KT/KT) (MB)    (MI)  (FT/S)
SOUTHERN BUOY              59 60  320/  6/  8 1020.5R         2/ 5
WAUKEGAN HARBOR            57     330/  8/  9 1021.7S
HARRISON CRIB              63      30/ 15/ 17   N/A
BURNHAM HARBOR             60     360/  6/ 10   N/A
CALUMET HARBOR             63      10/  8/ 11 1018.6F
MICHIGAN CITY              63      30/ 17/ 18   N/A
MICHIGAN CITY 6N           64 68   50/ 14/ 17   N/A           5/ 2
ST. JOSEPH                 54 49   10/  8/ 10   N/A           3/ 2
$$

ILZ025>027-034>036-040-047-049-050-058-095>099-241000-
WEST-CENTRAL ILLINOIS

CITY           SKY/WX    TMP DP  RH WIND       PRES   REMARKS
QUINCY         CLEAR     60  56  86 NE5       30.12F
GALESBURG*     PTCLDY    56  54  92 CALM      30.15S
MACOMB*        CLEAR     56  56  99 NE5       30.17S
JACKSONVILLE*  CLEAR     56  54  92 N5        30.13S
PITTSFIELD*    CLEAR     58  55  89 CALM      30.13F
$$

ILZ028>032-037-038-041>044-048-051>054-059>061-241000-
CENTRAL ILLINOIS

CITY           SKY/WX    TMP DP  RH WIND       PRES   REMARKS
PONTIAC        CLEAR     54  52  94 N5        30.12S
PEORIA         CLEAR     61  52  72 N3        30.14R
LACON*         CLEAR     56  50  80 CALM      30.13S
LINCOLN*       CLEAR     56  53  87 N5        30.10S
SPRINGFIELD    CLEAR     57  53  86 N7        30.12S
TAYLORVILLE    CLEAR     52  50  93 N5        30.10S
$$

ILZ033-039-045-046-055>057-062-063-241000-
EAST-CENTRAL ILLINOIS

CITY           SKY/WX    TMP DP  RH WIND       PRES   REMARKS
CHAMPAIGN      CLEAR     56  52  86 N10       30.08F
DANVILLE*      CLEAR     53  52  96 N8        30.05S
RANTOUL*       CLEAR     58  51  78 N12       30.10S
MATTOON        CLEAR     51  49  92 N6        30.07S
PARIS*         PTCLDY    55  53  94 CALM      30.07S
$$

ILZ079-100>102-241000-
SOUTHWEST ILLINOIS

CITY           SKY/WX    TMP DP  RH WIND       PRES   REMARKS
ALTON          CLEAR     59  55  88 CALM      30.10S
BELLEVILLE     CLEAR     59  54  83 NW3       30.08S
CAHOKIA*       CLEAR     60  53  77 N6        30.09S
SPARTA*        CLEAR     59  52  77 NW3       30.08F
$$

ILZ064>066-069>071-074>076-080>082-084>086-088>090-092>094-241000-
SOUTH-CENTRAL ILLINOIS

CITY           SKY/WX    TMP DP  RH WIND       PRES   REMARKS
CARBONDALE     CLEAR     58  53  84 NW5       30.05F
CAIRO*         CLEAR     63  55  74 N3        30.03F
EFFINGHAM*     CLEAR     57  48  73 N6        30.07S
MARION         CLEAR     59  50  72 N3        30.05S
MT. VERNON     CLEAR     57  48  72 N5        30.06S
CENTRALIA*     CLEAR     54  50  85 N5        30.06F
SALEM*         CLEAR     55  53  93 N5        30.07F
METROPOLIS*    CLEAR     60  53  77 N3        30.02F
$$

ILZ067-068-072-073-078-083-087-091-241000-
SOUTHEAST ILLINOIS

CITY           SKY/WX    TMP DP  RH WIND       PRES   REMARKS
LAWRENCEVILLE  PTCLDY    57  53  86 N6        30.04S
FLORA*         CLEAR     55  51  87 N5        30.06S
FAIRFIELD*     CLEAR     57  54  88 N7        30.05R
HARRISBURG*    CLEAR     58  51  77 N5        30.04S
ROBINSON*      PTCLDY    58  54  85 N6        30.06R
CARMI*         CLEAR     57  54  88 N5        30.02F
$$

ABBREVIATIONS USED IN REMARKS
   TC - TEMPERATURE IN CELSIUS
  WCI - WIND CHILL INDEX
   HX - HEAT INDEX
  VSB - VISIBILITY
$$




USA.gov is the U.S. government's official web portal to all federal, state and local government web resources and services.